Weather in Shyroke

Ukraine / Dnipropetrovsk Region     47°40′58″N   33°16′12″E
temp.,
°C
wind,
m/s
gust,
m/s
humid.,
%
clouds,
%
prec.,
mm/h
press.,
hPa
HPBL,
m
21 january, fri
fri2123:00−3sw3895100 0.0 1009149
02:00−3sw368793 0.0 1009113
05:00−3wsw3994100 0.0 1009200
08:00−2w41188100 1.6 1010623
11:00−1w710715 0.0 1012865
14:000w711685 0.0 10111113
17:00−2wsw511712 0.0 1012289
20:00−4wsw512751 0.0 1012322
22 january, sat
sat2223:00−4wsw512745 0.0 1013334
02:00−5wsw511795 0.0 1012314
05:00−5sw512825 0.0 1012311
08:00−5wsw5118289 0.0 1012311
11:00−2w577682 0.0 1013567
14:00−1w5671100 0.1 1013868
17:00−3wsw238198 0.1 101477
20:00−3wsw2385100 0.1 101556
23 january, sun
sun2323:00−5w229243 0.0 101631
02:00−7w11945 0.0 101612
05:00−7n11965 0.0 101612
08:00−7n229599 0.0 101734
11:00−3nne3378100 0.0 1018328
14:00−2nne4569100 0.0 1018718
17:00−3nne5982100 0.0 1020326
20:00−4nne51087100 0.0 1021430
24 january, mon
mon2423:00−5n5988100 0.0 1021362
02:00−5n7138997 0.1 1021500
05:00−6n6119096 0.1 1020547
08:00−6n61088100 0.3 1021492
11:00−4n5781100 0.1 1022552
14:00−3n4683100 0.2 1022570
17:00−4nw4795100 0.1 1023280
20:00−3n4896100 0.3 1023305
25 january, tue
tue2523:00−3nnw3697100 0.8 1023321
02:00−4nnw4696100 2.8 1023362
05:00−4nnw3596100 2.1 1023266
08:00−5nw239699 3.1 1023199
11:00−4wnw1186100 0.1 1023367
14:00−3ssw2381100 0.1 1022690
17:00−4ssw2494100 0.1 1022196
20:00−5se119724 0.1 102113